Content
SEND FEEDBACK

Daily
Averages
Monthly
Summary
Canada

PELEE ISLAND, ONTARIO


Home > North America > Canada > Ontario
Elevation: 571 feet     Latitude: 41 46N     Longitude: 082 40W

WEATHER
 
SELECT A DAY
Number of Records: 125,373;   Date Range: 12/10/00 - 12/17/14
 
SHARE

PRINT THIS DATA

[ ← Previous Day ]
WEATHER ALMANAC - APRIL 27, 2013
[ Next Day → ]
[ °C ]   °F
Weather ElementAverageHighLow
Temperature51.7 °F62.8 °F (3:00 pm)36.5 °F (7:00 am)
Dewpoint34.9 °F43.3 °F (8:00 am)30.2 °F (4:00 pm)
Humidity56.5 %93 % (7:00 am)20 % (2:00 pm)
Barometer30.28 in30.37 in (1:00 am)30.12 in (11:00 pm)
Wind Speed4.4 mph8.1 mph (11:00 am)
Weather ElementAverage
Wind DirectionSSE (140.7 °)

Weather ElementTotal
Precipitation---
Heating Degree Days15.4 (Base 65)
Averaged from 27 records on April 27, 2013
WEATHER CONDITIONS BREAKOUT
WIND DIRECTION BREAKOUT
WEATHER BY HOUR - APRIL 27, 2013
[ °C ]   °F
Local TimeTemperatureDewpointHumidityBarometerVisibilityWind DirectionWind SpeedGust SpeedPrecipitationEventsConditions
1:00 AM41.7 °F35.1 °F77 %30.37 inSE (140°)3.5 mph
2:00 AM40.0 °F35.0 °F74 %30.36 inSE (130°)2.3 mph
2:00 AM40.3 °F34.5 °F80 %30.36 inSE (130°)2.3 mph
3:00 AM40.6 °F36.3 °F85 %30.36 inESE (120°)2.3 mph
4:00 AM39.2 °F36.1 °F89 %30.35 inSSE (160°)3.5 mph
5:00 AM38.3 °F35.6 °F90 %30.35 inSSE (150°)3.5 mph
6:00 AM37.2 °F35.1 °F92 %30.34 inSouth (170°)2.3 mph
7:00 AM36.5 °F34.7 °F93 %30.34 inESE (120°)2.3 mph
8:00 AM46.0 °F43.0 °F87 %30.35 inSouth (170°)4.6 mph
8:00 AM45.7 °F43.3 °F92 %30.35 inSouth (170°)4.6 mph
9:00 AM51.3 °F40.5 °F67 %30.36 inSouth (190°)5.8 mph
10:00 AM55.6 °F37.9 °F52 %30.33 inSSW (200°)6.9 mph
11:00 AM58.8 °F34.9 °F41 %30.32 inSouth (180°)8.1 mph
12:00 PM59.2 °F31.3 °F35 %30.32 inSSW (200°)6.9 mph
1:00 PM60.8 °F31.5 °F33 %30.29 inSSE (160°)8.1 mph
2:00 PM62.0 °F31.0 °F20 %30.27 inSSE (150°)6.9 mph
2:00 PM61.5 °F31.5 °F32 %30.27 inSSE (150°)6.9 mph
3:00 PM62.8 °F34.7 °F35 %30.26 inSSE (160°)5.8 mph
4:00 PM62.2 °F30.2 °F30 %30.24 inESE (110°)4.6 mph
5:00 PM62.4 °F33.6 °F34 %30.21 inEast (100°)3.5 mph
6:00 PM62.8 °F35.6 °F36 %30.19 inESE (120°)3.5 mph
7:00 PM60.3 °F36.7 °F41 %30.17 inESE (110°)3.5 mph
8:00 PM57.0 °F35.0 °F32 %30.15 inESE (110°)2.3 mph
8:00 PM56.7 °F35.2 °F45 %30.15 inESE (110°)2.3 mph
9:00 PM53.6 °F31.3 °F43 %30.14 inEast (100°)4.6 mph
10:00 PM51.6 °F30.9 °F45 %30.14 inEast (100°)3.5 mph
11:00 PM51.6 °F31.1 °F45 %30.12 inEast (90°)4.6 mph
Hourly data recorded from CXHA, located miles away from Pelee Island, Ontario







STORIES FROM OUR PARTNERS